#�ϑ�����,���ϕ���,���ϕ���,�ő啗��,�ő啗����������,�ő�u�ԕ���,�ő�u�ԕ�����������
#(�N����),(m/s)   ,(16����),(m/s)   ,(16����)        ,(m/s)       ,(16����)            
2015/12/3 0:01,0.7,14,0.7,14,1.5,12
2015/12/3 0:02,0.8,13,0.8,13,1.3,13
2015/12/3 0:03,0.8,13,0.8,13,1,13
2015/12/3 0:04,0.7,13,0.8,13,0.9,13
2015/12/3 0:05,0.7,13,0.7,13,1.4,12
2015/12/3 0:06,0.7,13,0.7,13,1.5,12
2015/12/3 0:07,0.9,12,0.9,12,2.1,12
2015/12/3 0:08,1,12,1,12,2,12
2015/12/3 0:09,1,12,1,12,1.5,12
2015/12/3 0:10,1,12,1,12,1.4,12
2015/12/3 0:11,1,12,1,12,1.8,10
2015/12/3 0:12,1.1,12,1.1,12,3,11
2015/12/3 0:13,1.2,12,1.2,12,1.9,11
2015/12/3 0:14,1.3,12,1.3,12,1.5,12
2015/12/3 0:15,1.3,12,1.3,12,1.8,12
2015/12/3 0:16,1.3,12,1.3,12,1.3,12
2015/12/3 0:17,1.2,12,1.3,12,1.6,12
2015/12/3 0:18,1.1,12,1.2,12,1.6,12
2015/12/3 0:19,1.1,12,1.1,12,1.9,12
2015/12/3 0:20,1,12,1.1,12,0.8,11
2015/12/3 0:21,1,12,1,12,1.6,8
2015/12/3 0:22,0.9,11,1,12,1.9,8
2015/12/3 0:23,0.9,11,0.9,12,1.5,8
2015/12/3 0:24,0.9,10,0.9,12,1.4,7
2015/12/3 0:25,0.8,10,0.9,12,1,7
2015/12/3 0:26,0.9,9,0.9,12,1.3,8
2015/12/3 0:27,0.9,9,0.9,12,1.1,8
2015/12/3 0:28,0.8,8,0.9,12,1.1,8
2015/12/3 0:29,0.7,8,0.8,12,0.4,10
2015/12/3 0:30,0.8,8,0.8,12,1,10
2015/12/3 0:31,0.7,8,0.8,12,0.1,10
2015/12/3 0:32,0.5,9,0.7,11,0.1,10
2015/12/3 0:33,0.4,9,0.5,11,0.8,8
2015/12/3 0:34,0.4,9,0.4,10,0.9,6
2015/12/3 0:35,0.4,8,0.4,9,0.6,6
2015/12/3 0:36,0.3,8,0.4,9,0.1,5
2015/12/3 0:37,0.2,8,0.3,9,0.1,4
2015/12/3 0:38,0.2,8,0.2,8,0.5,9
2015/12/3 0:39,0.2,8,0.2,8,3.1,9
2015/12/3 0:40,0.4,8,0.4,8,3.8,9
2015/12/3 0:41,0.5,8,0.5,8,2.9,9
2015/12/3 0:42,0.6,8,0.6,8,1.5,10
2015/12/3 0:43,0.7,8,0.7,8,1.4,10
2015/12/3 0:44,0.7,9,0.7,8,1.3,11
2015/12/3 0:45,0.9,10,0.9,10,2,13
2015/12/3 0:46,1.1,10,1.1,10,2,13
2015/12/3 0:47,1.3,11,1.3,11,2.4,13
2015/12/3 0:48,1.5,11,1.5,11,3.1,13
2015/12/3 0:49,1.5,12,1.6,12,2.6,14
2015/12/3 0:50,1.4,12,1.5,12,1.4,15
2015/12/3 0:51,1.3,13,1.4,12,1.1,14
2015/12/3 0:52,1.3,13,1.4,12,1.6,14
2015/12/3 0:53,1.3,14,1.3,12,1.3,15
2015/12/3 0:54,1.3,14,1.3,12,1.3,16
2015/12/3 0:55,1.1,15,1.3,12,0.8,1
2015/12/3 0:56,0.9,15,1.1,12,0.1,4
2015/12/3 0:57,0.8,16,0.9,12,0.6,2
2015/12/3 0:58,0.6,16,0.7,12,1.3,1
2015/12/3 0:59,0.6,1,0.6,12,1.5,1
2015/12/3 1:00,0.6,1,0.6,12,1.8,16
2015/12/3 1:01,0.7,1,0.7,13,1.4,1
2015/12/3 1:02,0.6,1,0.7,13,1.1,16
2015/12/3 1:03,0.6,2,0.6,14,1.3,2
2015/12/3 1:04,0.7,2,0.7,14,1.9,2
2015/12/3 1:05,0.8,1,0.8,15,2.1,1
2015/12/3 1:06,0.9,1,0.9,15,1.5,2
2015/12/3 1:07,0.9,1,0.9,1,0.9,1
2015/12/3 1:08,0.8,1,0.9,1,0.1,1
2015/12/3 1:09,0.7,16,0.8,1,1,12
2015/12/3 1:10,0.7,16,0.7,1,2,10
2015/12/3 1:11,0.8,15,0.8,1,1.4,12
2015/12/3 1:12,0.8,15,0.8,1,1.3,13
2015/12/3 1:13,0.8,14,0.8,1,0.5,14
2015/12/3 1:14,0.7,14,0.8,1,0.1,14
2015/12/3 1:15,0.5,13,0.7,1,0.1,8
2015/12/3 1:16,0.5,13,0.5,1,0.1,2
2015/12/3 1:17,0.5,12,0.5,1,1,9
2015/12/3 1:18,0.5,12,0.5,1,1,9
2015/12/3 1:19,0.6,12,0.6,15,2.7,10
2015/12/3 1:20,0.6,12,0.6,15,2.1,10
2015/12/3 1:21,0.6,11,0.6,15,1.5,10
2015/12/3 1:22,0.7,11,0.7,15,1.8,10
2015/12/3 1:23,0.7,10,0.7,14,1.8,12
2015/12/3 1:24,0.8,10,0.8,10,1.3,8
2015/12/3 1:25,0.8,10,0.8,10,1.4,7
2015/12/3 1:26,1,10,1,10,1.6,7
2015/12/3 1:27,1.1,9,1.1,9,2.2,7
2015/12/3 1:28,1.2,9,1.2,9,2,7
2015/12/3 1:29,1.2,8,1.2,9,1.9,6
2015/12/3 1:30,1.1,8,1.2,9,1.6,5
2015/12/3 1:31,1.1,7,1.1,9,1.3,4
2015/12/3 1:32,1.1,7,1.1,9,1.5,4
2015/12/3 1:33,1.1,6,1.1,9,1.4,4
2015/12/3 1:34,1.1,6,1.1,9,1,6
2015/12/3 1:35,1,6,1.1,9,0.1,13
2015/12/3 1:36,0.9,6,1,9,0.1,8
2015/12/3 1:37,0.7,6,0.9,9,0.1,9
2015/12/3 1:38,0.6,7,0.7,9,0.1,9
2015/12/3 1:39,0.5,7,0.6,8,0.8,16
2015/12/3 1:40,0.4,7,0.4,8,1.1,16
2015/12/3 1:41,0.5,8,0.5,7,2,16
2015/12/3 1:42,0.5,8,0.5,7,1.8,1
2015/12/3 1:43,0.6,13,0.6,6,2.5,1
2015/12/3 1:44,0.7,15,0.7,6,2.5,2
2015/12/3 1:45,0.8,1,0.8,6,2.1,2
2015/12/3 1:46,0.9,1,0.9,6,1.5,16
2015/12/3 1:47,0.9,1,0.9,1,1.9,1
2015/12/3 1:48,1,1,1,1,1.8,14
2015/12/3 1:49,1.2,16,1.2,16,2.2,14
2015/12/3 1:50,1.3,16,1.3,16,2.6,15
2015/12/3 1:51,1.3,16,1.3,16,2.7,16
2015/12/3 1:52,1.4,16,1.4,16,3.1,1
2015/12/3 1:53,1.5,1,1.5,16,3,2
2015/12/3 1:54,1.5,1,1.5,16,3.5,2
2015/12/3 1:55,1.6,1,1.6,1,3,2
2015/12/3 1:56,1.6,1,1.6,1,2.2,1
2015/12/3 1:57,1.7,1,1.7,1,3.5,2
2015/12/3 1:58,1.7,1,1.7,1,2.5,15
2015/12/3 1:59,1.7,1,1.7,1,2.4,16
2015/12/3 2:00,1.5,1,1.6,1,1.3,15
2015/12/3 2:01,1.3,1,1.5,1,0.5,1
2015/12/3 2:02,1.2,1,1.3,1,1.4,16
2015/12/3 2:03,1.1,1,1.1,1,1.8,16
2015/12/3 2:04,1,1,1.1,1,1.8,1
2015/12/3 2:05,1,16,1,1,1.8,1
2015/12/3 2:06,1.1,16,1.1,1,1.8,1
2015/12/3 2:07,1,16,1.1,1,1.8,1
2015/12/3 2:08,0.9,16,1,1,0.6,16
2015/12/3 2:09,0.9,16,0.9,1,0.5,1
2015/12/3 2:10,0.8,16,0.9,1,0.4,1
2015/12/3 2:11,0.8,16,0.8,1,0.6,10
2015/12/3 2:12,0.8,16,0.8,1,0.8,9
2015/12/3 2:13,0.7,16,0.8,1,0.1,10
2015/12/3 2:14,0.5,16,0.7,16,0.1,4
2015/12/3 2:15,0.5,1,0.5,16,0.9,4
2015/12/3 2:16,0.4,2,0.4,16,1.4,4
2015/12/3 2:17,0.5,3,0.5,16,2.5,3
2015/12/3 2:18,0.7,4,0.7,16,2.7,3
2015/12/3 2:19,0.8,4,0.8,16,2.7,3
2015/12/3 2:20,0.9,4,0.9,4,2,1
2015/12/3 2:21,1,3,1,4,2.1,1
2015/12/3 2:22,1.1,3,1.1,3,2.2,2
2015/12/3 2:23,1.2,3,1.2,3,2.2,2
2015/12/3 2:24,1.4,2,1.4,2,2.4,2
2015/12/3 2:25,1.5,2,1.5,2,2.4,2
2015/12/3 2:26,1.6,2,1.6,2,2.5,2
2015/12/3 2:27,1.6,2,1.6,2,2.2,3
2015/12/3 2:28,1.5,2,1.5,2,3.6,3
2015/12/3 2:29,1.6,2,1.6,2,3.5,2
2015/12/3 2:30,1.6,2,1.6,2,2.7,2
2015/12/3 2:31,1.7,2,1.7,2,3,2
2015/12/3 2:32,1.7,2,1.7,2,2.6,3
2015/12/3 2:33,1.7,3,1.7,2,2.7,5
2015/12/3 2:34,1.8,3,1.8,3,2.4,4
2015/12/3 2:35,1.8,3,1.8,3,2.1,3
2015/12/3 2:36,1.7,3,1.8,3,2.5,1
2015/12/3 2:37,1.7,3,1.7,3,2.1,1
2015/12/3 2:38,1.7,2,1.8,3,2.6,1
2015/12/3 2:39,1.7,2,1.7,3,2.4,2
2015/12/3 2:40,1.7,2,1.7,3,2.1,3
2015/12/3 2:41,1.5,2,1.6,3,1.3,3
2015/12/3 2:42,1.6,2,1.6,3,3.5,3
2015/12/3 2:43,1.8,2,1.8,3,5.6,3
2015/12/3 2:44,1.9,2,1.9,2,4.2,3
2015/12/3 2:45,1.9,2,1.9,2,4.1,5
2015/12/3 2:46,1.9,3,1.9,2,2.6,5
2015/12/3 2:47,1.8,3,1.9,2,1.1,5
2015/12/3 2:48,1.7,4,1.8,2,1,6
2015/12/3 2:49,1.6,4,1.7,2,2.9,3
2015/12/3 2:50,1.7,4,1.7,2,3.5,4
2015/12/3 2:51,1.8,4,1.8,2,2.5,6
2015/12/3 2:52,1.7,4,1.7,2,2.2,6
2015/12/3 2:53,1.4,5,1.6,2,1.3,6
2015/12/3 2:54,1.1,5,1.3,2,0.9,9
2015/12/3 2:55,0.9,5,1.1,2,0.6,16
2015/12/3 2:56,0.8,5,0.9,3,0.8,16
2015/12/3 2:57,0.8,5,0.8,3,0.3,16
2015/12/3 2:58,0.7,4,0.7,4,0.6,14
2015/12/3 2:59,0.6,4,0.7,4,0.8,12
2015/12/3 3:00,0.5,5,0.6,4,1.6,6
2015/12/3 3:01,0.5,5,0.5,4,1.9,5
2015/12/3 3:02,0.5,5,0.5,4,1.8,5
2015/12/3 3:03,0.6,4,0.6,5,2.4,4
2015/12/3 3:04,0.7,4,0.7,5,2.4,5
2015/12/3 3:05,0.9,4,0.9,5,2.4,4
2015/12/3 3:06,1.1,4,1.1,4,2.6,3
2015/12/3 3:07,1.2,4,1.2,4,2.2,3
2015/12/3 3:08,1.3,4,1.3,4,1.5,2
2015/12/3 3:09,1.3,4,1.3,4,1.5,2
2015/12/3 3:10,1.4,3,1.4,4,2.6,3
2015/12/3 3:11,1.5,3,1.5,3,3,3
2015/12/3 3:12,1.6,3,1.6,3,3.3,3
2015/12/3 3:13,1.7,3,1.7,3,3.1,3
2015/12/3 3:14,1.7,3,1.7,3,3.6,3
2015/12/3 3:15,1.8,3,1.8,3,2.9,2
2015/12/3 3:16,1.8,3,1.8,3,3,4
2015/12/3 3:17,1.9,3,1.9,3,2.6,4
2015/12/3 3:18,1.9,3,1.9,3,2.2,3
2015/12/3 3:19,2,3,2,3,3.3,4
2015/12/3 3:20,2,3,2,3,3,3
2015/12/3 3:21,1.9,3,2,3,2,3
2015/12/3 3:22,1.7,3,1.9,3,1.3,6
2015/12/3 3:23,1.5,3,1.7,3,1.3,12
2015/12/3 3:24,1.5,3,1.5,3,2.5,13
2015/12/3 3:25,1.5,2,1.5,3,2.9,12
2015/12/3 3:26,1.6,1,1.6,3,4.4,12
2015/12/3 3:27,1.7,15,1.7,3,4.5,11
2015/12/3 3:28,1.7,13,1.7,3,3.5,10
2015/12/3 3:29,1.9,12,1.9,3,5.1,9
2015/12/3 3:30,1.9,11,2,3,4.3,12
2015/12/3 3:31,2,11,2,11,3.2,10
2015/12/3 3:32,2.3,11,2.3,11,3.5,12
2015/12/3 3:33,2.4,11,2.4,11,3.1,12
2015/12/3 3:34,2.4,11,2.4,11,2.7,9
2015/12/3 3:35,2.5,11,2.5,11,4.3,9
2015/12/3 3:36,2.4,11,2.5,11,4.7,9
2015/12/3 3:37,2.5,11,2.5,11,5.1,10
2015/12/3 3:38,2.6,11,2.6,11,3.9,10
2015/12/3 3:39,2.4,11,2.5,11,3.1,12
2015/12/3 3:40,2.3,11,2.4,11,2.5,12
2015/12/3 3:41,2.2,11,2.3,11,1.9,11
2015/12/3 3:42,2.1,11,2.2,11,3.5,13
2015/12/3 3:43,2.1,11,2.1,11,2.5,14
2015/12/3 3:44,2,11,2.1,11,2.5,13
2015/12/3 3:45,1.9,12,2,11,2.1,12
2015/12/3 3:46,1.7,12,1.9,11,2.2,14
2015/12/3 3:47,1.5,12,1.7,11,1.8,13
2015/12/3 3:48,1.2,12,1.5,11,1,10
2015/12/3 3:49,1.1,12,1.2,11,1.4,11
2015/12/3 3:50,1,13,1.1,11,0.3,7
2015/12/3 3:51,1,12,1,11,2.1,11
2015/12/3 3:52,1,12,1,11,2.7,9
2015/12/3 3:53,1,12,1.1,11,2.2,10
2015/12/3 3:54,1,11,1,11,1.9,9
2015/12/3 3:55,0.9,10,0.9,12,1.1,10
2015/12/3 3:56,0.7,10,0.9,12,0.5,10
2015/12/3 3:57,0.7,9,0.7,12,0.9,8
2015/12/3 3:58,0.7,9,0.7,12,0.6,8
2015/12/3 3:59,0.7,9,0.7,12,0.9,8
2015/12/3 4:00,0.8,9,0.8,12,0.6,8
2015/12/3 4:01,0.7,9,0.8,12,0.4,8
2015/12/3 4:02,0.5,8,0.6,12,0.1,7
2015/12/3 4:03,0.3,8,0.5,11,0.1,8
2015/12/3 4:04,0.3,8,0.3,11,0,8
2015/12/3 4:05,0.2,8,0.3,10,0,8
2015/12/3 4:06,0.2,8,0.2,9,0.1,8
2015/12/3 4:07,0.1,8,0.2,9,0,8
2015/12/3 4:08,0.1,8,0.1,9,0.1,8
2015/12/3 4:09,0,8,0.1,9,0.1,8
2015/12/3 4:10,0,8,0,9,0,8
2015/12/3 4:11,0,8,0,9,0,1
2015/12/3 4:12,0,7,0,8,0.1,4
2015/12/3 4:13,0.1,7,0.1,8,1,4
2015/12/3 4:14,0.2,6,0.2,8,1,4
2015/12/3 4:15,0.2,5,0.2,8,0.8,3
2015/12/3 4:16,0.2,4,0.2,8,0.3,2
2015/12/3 4:17,0.3,3,0.3,3,0.5,1
2015/12/3 4:18,0.3,2,0.3,3,0.9,16
2015/12/3 4:19,0.4,2,0.4,2,0.9,16
2015/12/3 4:20,0.5,2,0.5,2,0.9,1
2015/12/3 4:21,0.5,2,0.5,2,0.8,1
2015/12/3 4:22,0.5,2,0.5,2,0.4,1
2015/12/3 4:23,0.4,1,0.5,2,0.6,3
2015/12/3 4:24,0.4,2,0.4,2,0.8,3
2015/12/3 4:25,0.4,2,0.4,2,0.6,4
2015/12/3 4:26,0.5,2,0.5,2,0.5,4
2015/12/3 4:27,0.5,2,0.5,2,1,3
2015/12/3 4:28,0.5,2,0.5,2,1.3,2
2015/12/3 4:29,0.5,3,0.5,2,1.3,2
2015/12/3 4:30,0.5,3,0.5,2,1.3,2
2015/12/3 4:31,0.6,3,0.6,3,1.3,1
2015/12/3 4:32,0.7,3,0.7,3,1.4,2
2015/12/3 4:33,0.8,2,0.8,3,1.4,1
2015/12/3 4:34,0.8,2,0.8,3,1.5,1
2015/12/3 4:35,0.9,2,0.9,2,1.8,1
2015/12/3 4:36,1,2,1,2,1.5,1
2015/12/3 4:37,1,1,1,2,1.5,2
2015/12/3 4:38,1,1,1,2,1.4,15
2015/12/3 4:39,1,1,1,2,1.3,15
2015/12/3 4:40,1,1,1,2,1.4,15
2015/12/3 4:41,1,16,1,2,1,16
2015/12/3 4:42,1,16,1,2,1,16
2015/12/3 4:43,1,16,1,2,0.9,16
2015/12/3 4:44,0.9,16,0.9,2,0.8,1
2015/12/3 4:45,0.7,16,0.8,2,0.1,2
2015/12/3 4:46,0.7,1,0.7,2,0.8,2
2015/12/3 4:47,0.6,1,0.6,1,0.6,3
2015/12/3 4:48,0.5,1,0.6,1,0.1,3
2015/12/3 4:49,0.4,1,0.5,1,0.1,10
2015/12/3 4:50,0.3,1,0.4,1,0.1,10
2015/12/3 4:51,0.2,1,0.3,16,0.1,10
2015/12/3 4:52,0.1,1,0.2,16,0.3,10
2015/12/3 4:53,0.1,10,0.1,16,0,10
2015/12/3 4:54,0.1,10,0.1,16,0.1,10
2015/12/3 4:55,0.1,10,0.1,16,0.5,10
2015/12/3 4:56,0,10,0.1,1,0.5,10
2015/12/3 4:57,0,10,0,1,0.5,10
2015/12/3 4:58,0,10,0,1,0,10
2015/12/3 4:59,0,10,0,1,0.1,14
2015/12/3 5:00,0.1,10,0.1,1,1,16
2015/12/3 5:01,0.2,10,0.2,1,1.1,15
2015/12/3 5:02,0.2,11,0.2,10,0.9,1
2015/12/3 5:03,0.3,12,0.3,11,0.9,1
2015/12/3 5:04,0.3,14,0.3,11,0.8,1
2015/12/3 5:05,0.4,16,0.4,15,0.8,2
2015/12/3 5:06,0.4,16,0.4,15,0.5,2
2015/12/3 5:07,0.4,16,0.4,15,0.9,12
2015/12/3 5:08,0.4,16,0.4,15,1.1,12
2015/12/3 5:09,0.4,16,0.4,15,0.4,11
2015/12/3 5:10,0.4,15,0.4,15,0,11
2015/12/3 5:11,0.3,14,0.3,15,0,11
2015/12/3 5:12,0.2,13,0.3,15,0,11
2015/12/3 5:13,0.2,13,0.2,15,0.8,13
2015/12/3 5:14,0.2,12,0.2,15,0.9,12
2015/12/3 5:15,0.3,12,0.3,16,1,11
2015/12/3 5:16,0.3,11,0.3,16,0.9,12
2015/12/3 5:17,0.3,11,0.3,16,0.5,11
2015/12/3 5:18,0.3,11,0.3,16,0,9
2015/12/3 5:19,0.3,11,0.3,16,0.8,13
2015/12/3 5:20,0.4,11,0.4,11,1.1,12
2015/12/3 5:21,0.5,11,0.5,11,1.4,12
2015/12/3 5:22,0.6,11,0.6,11,1.3,12
2015/12/3 5:23,0.7,11,0.7,11,1.5,10
2015/12/3 5:24,0.8,11,0.8,11,2,10
2015/12/3 5:25,0.8,11,0.8,11,2,12
2015/12/3 5:26,1,11,1,11,2.7,12
2015/12/3 5:27,1.1,11,1.1,11,2.1,13
2015/12/3 5:28,1.2,12,1.2,12,2.5,13
2015/12/3 5:29,1.3,12,1.3,12,1.8,8
2015/12/3 5:30,1.3,12,1.3,12,2.2,16
2015/12/3 5:31,1.4,12,1.4,12,2.7,1
2015/12/3 5:32,1.5,12,1.5,12,3,16
2015/12/3 5:33,1.6,13,1.6,13,3.7,16
2015/12/3 5:34,1.7,14,1.7,13,4.1,15
2015/12/3 5:35,1.6,14,1.7,13,4.2,16
2015/12/3 5:36,1.8,15,1.8,15,6,16
2015/12/3 5:37,2,15,2,15,7.4,16
2015/12/3 5:38,2.2,16,2.2,15,5.4,16
2015/12/3 5:39,2.3,16,2.3,16,3.6,1
2015/12/3 5:40,2.5,16,2.5,16,7.2,14
2015/12/3 5:41,2.7,15,2.7,15,6.1,1
2015/12/3 5:42,2.7,15,2.7,15,3.9,15
2015/12/3 5:43,2.8,15,2.8,15,4.9,15
2015/12/3 5:44,3,15,3,15,6.9,15
2015/12/3 5:45,3.4,15,3.4,15,10.1,15
2015/12/3 5:46,3.6,15,3.6,15,8.6,16
2015/12/3 5:47,3.5,15,3.7,15,8.5,15
2015/12/3 5:48,3.5,15,3.5,15,5.4,16
2015/12/3 5:49,3.6,15,3.6,15,6.3,14
2015/12/3 5:50,3.8,15,3.8,15,11.3,16
2015/12/3 5:51,4.1,15,4.1,15,11.4,15
2015/12/3 5:52,4.6,15,4.6,15,10.7,15
2015/12/3 5:53,4.8,15,4.8,15,9.4,1
2015/12/3 5:54,5,15,5,15,11.9,15
2015/12/3 5:55,5.2,16,5.2,15,12.6,16
2015/12/3 5:56,5.4,16,5.4,16,11,15
2015/12/3 5:57,5.8,16,5.8,16,11.3,16
2015/12/3 5:58,6.1,16,6.1,16,12.4,14
2015/12/3 5:59,6.5,16,6.5,16,11.5,15
2015/12/3 6:00,6.5,16,6.6,16,10.8,14
2015/12/3 6:01,6.3,15,6.5,16,10.7,16
2015/12/3 6:02,6.2,16,6.3,16,11.5,16
2015/12/3 6:03,6.1,16,6.3,16,10.9,15
2015/12/3 6:04,6.2,16,6.2,16,11.9,16
2015/12/3 6:05,6,16,6.2,16,11.4,1
2015/12/3 6:06,6.1,16,6.1,16,14,16
2015/12/3 6:07,6.1,16,6.2,16,12.4,15
2015/12/3 6:08,6.1,16,6.1,16,12.5,15
2015/12/3 6:09,6.1,16,6.1,16,11.4,15
2015/12/3 6:10,6.3,16,6.3,16,12.6,15
2015/12/3 6:11,6.6,16,6.6,16,11.5,16
2015/12/3 6:12,6.7,16,6.7,16,13.2,16
2015/12/3 6:13,7.2,16,7.2,16,11.6,16
2015/12/3 6:14,7.5,16,7.6,16,13.1,16
2015/12/3 6:15,7.9,16,7.9,16,15,15
2015/12/3 6:16,8,16,8.1,16,14.4,15
2015/12/3 6:17,8.1,16,8.1,16,15.1,15
2015/12/3 6:18,8.2,16,8.3,16,12.8,15
2015/12/3 6:19,8.3,16,8.3,16,14.7,15
2015/12/3 6:20,8.3,16,8.3,16,12.8,16
2015/12/3 6:21,8.2,16,8.2,16,12.2,15
2015/12/3 6:22,8,16,8.2,16,12.3,15
2015/12/3 6:23,7.9,16,8,16,11.7,15
2015/12/3 6:24,7.8,16,7.9,16,13.5,16
2015/12/3 6:25,7.6,16,7.7,16,14.4,16
2015/12/3 6:26,7.5,16,7.6,16,13.8,14
2015/12/3 6:27,7.6,16,7.7,16,13.9,16
2015/12/3 6:28,7.7,16,7.7,16,12.6,15
2015/12/3 6:29,7.8,16,7.9,16,14.5,16
2015/12/3 6:30,7.8,16,7.9,16,12.5,16
2015/12/3 6:31,8,16,8,16,13.9,16
2015/12/3 6:32,8.2,16,8.2,16,12.5,16
2015/12/3 6:33,8.3,16,8.3,16,13,15
2015/12/3 6:34,8.1,16,8.2,16,13.9,15
2015/12/3 6:35,7.9,16,8.1,16,12.7,16
2015/12/3 6:36,7.8,16,8,16,14.8,15
2015/12/3 6:37,7.8,16,7.8,16,12.3,16
2015/12/3 6:38,7.8,16,7.8,16,14.7,16
2015/12/3 6:39,7.8,16,7.8,16,14,16
2015/12/3 6:40,7.9,16,7.9,16,12.7,16
2015/12/3 6:41,7.7,16,7.9,16,13.9,16
2015/12/3 6:42,7.7,16,7.8,16,14.2,16
2015/12/3 6:43,7.5,16,7.7,16,13.1,15
2015/12/3 6:44,7.6,16,7.7,16,12.6,16
2015/12/3 6:45,7.8,16,7.8,16,13.6,16
2015/12/3 6:46,7.8,16,7.8,16,13.8,16
2015/12/3 6:47,7.9,16,7.9,16,13.2,16
2015/12/3 6:48,7.6,16,7.8,16,13.1,16
2015/12/3 6:49,7.2,16,7.5,16,10.5,16
2015/12/3 6:50,7.1,16,7.2,16,11,16
2015/12/3 6:51,7.1,16,7.2,16,11.1,16
2015/12/3 6:52,7.1,16,7.1,16,10.2,16
2015/12/3 6:53,7,16,7.1,16,8.9,16
2015/12/3 6:54,6.6,16,6.9,16,9.5,16
2015/12/3 6:55,6.5,16,6.6,16,13,16
2015/12/3 6:56,6.1,16,6.5,16,8.5,15
2015/12/3 6:57,5.9,16,6,16,11,16
2015/12/3 6:58,5.9,16,5.9,16,10.8,16
2015/12/3 6:59,6.1,16,6.1,16,11.5,15
2015/12/3 7:00,6.1,16,6.1,16,13.8,16
2015/12/3 7:01,6,16,6,16,11.6,16
2015/12/3 7:02,6,16,6,16,10.1,16
2015/12/3 7:03,5.9,16,6,16,9.1,16
2015/12/3 7:04,6.3,16,6.3,16,12.6,15
2015/12/3 7:05,6.2,16,6.3,16,12.3,16
2015/12/3 7:06,6.4,16,6.4,16,11.6,15
2015/12/3 7:07,6.2,16,6.4,16,8.9,15
2015/12/3 7:08,6.5,16,6.5,16,13.9,16
2015/12/3 7:09,6.4,16,6.5,16,10.6,16
2015/12/3 7:10,6.5,16,6.5,16,12.8,16
2015/12/3 7:11,6.5,16,6.6,16,11.8,16
2015/12/3 7:12,6.3,16,6.4,16,11.1,14
2015/12/3 7:13,6.4,16,6.4,16,10.1,16
2015/12/3 7:14,6.2,15,6.4,16,9.3,15
2015/12/3 7:15,6.2,15,6.3,16,12.5,15
2015/12/3 7:16,6.2,15,6.2,16,11.6,16
2015/12/3 7:17,6.6,15,6.6,16,16.8,15
2015/12/3 7:18,6.5,15,6.6,16,11.4,16
2015/12/3 7:19,6.6,15,6.6,16,13.5,16
2015/12/3 7:20,6.5,15,6.6,16,12.2,16
2015/12/3 7:21,6.9,15,6.9,15,13.8,15
2015/12/3 7:22,7.3,15,7.3,15,14.9,14
2015/12/3 7:23,7.3,15,7.3,15,10.3,15
2015/12/3 7:24,7.8,15,7.8,15,13.8,15
2015/12/3 7:25,7.7,16,7.8,15,11.6,15
2015/12/3 7:26,7.6,16,7.7,15,10.9,16
2015/12/3 7:27,7.7,16,7.7,15,14.7,15
2015/12/3 7:28,7.8,16,7.8,15,12.5,1
2015/12/3 7:29,8,16,8.1,16,14.1,16
2015/12/3 7:30,7.9,16,8,16,12.4,16
2015/12/3 7:31,7.6,16,8,16,11,16
2015/12/3 7:32,7.4,16,7.6,16,13,16
2015/12/3 7:33,7.3,16,7.4,16,9.7,16
2015/12/3 7:34,7.4,16,7.4,16,13.9,14
2015/12/3 7:35,7.5,15,7.5,16,14.3,16
2015/12/3 7:36,7.8,15,7.8,16,13.8,15
2015/12/3 7:37,7.6,15,7.7,16,12.4,15
2015/12/3 7:38,7.7,15,7.7,16,13.9,1
2015/12/3 7:39,7.4,15,7.6,16,10.9,2
2015/12/3 7:40,7.2,15,7.4,16,10.1,16
2015/12/3 7:41,7.3,15,7.4,15,11,15
2015/12/3 7:42,7.4,15,7.4,15,11.5,14
2015/12/3 7:43,7.4,15,7.5,15,9.1,15
2015/12/3 7:44,7,16,7.4,15,10.5,15
2015/12/3 7:45,7,16,7.1,15,12.1,16
2015/12/3 7:46,6.9,16,7,15,15.4,16
2015/12/3 7:47,7,16,7,15,11.5,15
2015/12/3 7:48,6.8,16,7,15,9.8,15
2015/12/3 7:49,6.7,15,6.8,15,9.2,14
2015/12/3 7:50,6.8,15,6.8,15,11.3,15
2015/12/3 7:51,6.6,15,6.8,15,10.6,15
2015/12/3 7:52,6.4,15,6.6,15,9.7,15
2015/12/3 7:53,6.7,15,6.7,15,12.3,1
2015/12/3 7:54,6.7,15,6.9,16,13.5,15
2015/12/3 7:55,6.6,15,6.8,16,11.1,15
2015/12/3 7:56,6.3,15,6.6,16,7.8,15
2015/12/3 7:57,5.9,15,6.2,16,8.5,14
2015/12/3 7:58,5.7,16,5.9,15,9.8,16
2015/12/3 7:59,5.5,15,5.7,15,6.9,13
2015/12/3 8:00,5.3,16,5.5,15,6.7,16
2015/12/3 8:01,5.2,16,5.3,15,6.3,15
2015/12/3 8:02,4.9,15,5.1,15,5.1,15
2015/12/3 8:03,4.4,15,4.8,15,5.6,16
2015/12/3 8:04,4,15,4.4,15,5.6,14
2015/12/3 8:05,3.6,15,4,15,3.6,3
2015/12/3 8:06,3.6,15,3.6,15,10,15
2015/12/3 8:07,3.7,15,3.8,15,9.8,16
2015/12/3 8:08,3.5,15,3.6,16,6.3,16
2015/12/3 8:09,3.5,15,3.7,15,5.8,16
2015/12/3 8:10,3.4,15,3.5,16,7.6,14
2015/12/3 8:11,3.3,15,3.4,16,4.9,15
2015/12/3 8:12,3.5,15,3.5,15,10,16
2015/12/3 8:13,3.9,15,3.9,15,9.7,14
2015/12/3 8:14,4.3,15,4.3,15,13.3,16
2015/12/3 8:15,4.7,15,4.7,15,9.5,16
2015/12/3 8:16,4.7,15,4.8,15,11.8,1
2015/12/3 8:17,4.7,15,4.7,15,9,15
2015/12/3 8:18,5.2,15,5.2,15,12.4,16
2015/12/3 8:19,5.6,15,5.6,15,12.4,16
2015/12/3 8:20,5.9,15,5.9,15,13.3,15
2015/12/3 8:21,6.3,16,6.3,16,9.7,15
2015/12/3 8:22,6.3,16,6.4,16,10.6,16
2015/12/3 8:23,6.4,16,6.5,16,11.9,15
2015/12/3 8:24,6.3,16,6.5,16,9.8,15
2015/12/3 8:25,6.3,16,6.3,16,10,16
2015/12/3 8:26,6.2,16,6.3,16,10.6,15
2015/12/3 8:27,6.2,16,6.2,16,11.8,15
2015/12/3 8:28,5.9,16,6.1,16,8.1,16
2015/12/3 8:29,5.8,16,5.9,16,12.3,15
2015/12/3 8:30,5.7,16,5.8,16,10.8,16
2015/12/3 8:31,5.6,16,5.7,16,9.1,15
2015/12/3 8:32,5.8,16,5.8,16,14.5,15
2015/12/3 8:33,5.8,16,5.8,16,11.3,15
2015/12/3 8:34,5.7,15,5.8,16,7.9,16
2015/12/3 8:35,5.8,15,5.8,16,11.1,16
2015/12/3 8:36,5.8,15,5.8,16,10.9,15
2015/12/3 8:37,6,15,6.1,16,11.9,15
2015/12/3 8:38,6.1,15,6.1,15,15.1,15
2015/12/3 8:39,6,15,6.2,15,11.1,16
2015/12/3 8:40,5.8,15,6,15,11.3,16
2015/12/3 8:41,5.7,15,5.8,15,8.3,15
2015/12/3 8:42,5.4,15,5.8,15,7.1,14
2015/12/3 8:43,4.9,15,5.4,15,7.2,15
2015/12/3 8:44,4.7,15,4.9,15,5.2,16
2015/12/3 8:45,4.5,15,4.7,15,10,14
2015/12/3 8:46,4.3,15,4.6,15,6.7,15
2015/12/3 8:47,4,15,4.2,15,7.5,15
2015/12/3 8:48,4,15,4.1,15,9.4,1
2015/12/3 8:49,3.9,15,3.9,15,7.9,14
2015/12/3 8:50,3.7,15,3.9,15,3.2,16
2015/12/3 8:51,3.7,15,3.7,15,6.4,15
2015/12/3 8:52,3.9,15,3.9,15,10.5,1
2015/12/3 8:53,4.3,15,4.3,15,11.6,16
2015/12/3 8:54,4.6,15,4.6,15,7.2,15
2015/12/3 8:55,4.5,15,4.6,15,8.3,16
2015/12/3 8:56,4.6,15,4.6,15,10.1,15
2015/12/3 8:57,4.6,15,4.6,15,7.8,14
2015/12/3 8:58,4.3,15,4.6,15,7.6,14
2015/12/3 8:59,4.2,15,4.3,15,7.2,16
2015/12/3 9:00,4.2,15,4.2,15,2.9,1
2015/12/3 9:01,4.3,15,4.3,15,6.4,15
2015/12/3 9:02,4.1,15,4.3,15,7.7,15
2015/12/3 9:03,3.6,15,4,15,3.5,12
2015/12/3 9:04,3.4,15,3.6,15,2.2,12
2015/12/3 9:05,3.2,14,3.4,15,5.7,11
2015/12/3 9:06,3.3,14,3.3,15,7.1,12
2015/12/3 9:07,3.3,14,3.4,15,5.4,13
2015/12/3 9:08,3.3,14,3.3,15,4.9,13
2015/12/3 9:09,3,13,3.3,15,3.2,14
2015/12/3 9:10,2.9,13,3,15,1.4,3
2015/12/3 9:11,2.6,13,2.9,15,2.5,4
2015/12/3 9:12,2.4,12,2.6,15,4.7,7
2015/12/3 9:13,2.2,12,2.4,15,1.9,7
2015/12/3 9:14,2.3,14,2.3,15,3.6,16
2015/12/3 9:15,2.2,15,2.3,14,3.7,15
2015/12/3 9:16,1.9,15,2.2,14,5.8,13
2015/12/3 9:17,1.7,16,1.9,14,3.9,10
2015/12/3 9:18,1.6,16,1.7,14,3.9,14
2015/12/3 9:19,1.7,16,1.7,13,2.7,10
2015/12/3 9:20,1.8,15,1.8,13,4.7,16
2015/12/3 9:21,1.9,14,1.9,13,4.8,12
2015/12/3 9:22,2.1,14,2.1,12,7.5,16
2015/12/3 9:23,2.3,15,2.3,13,6.3,16
2015/12/3 9:24,2.3,14,2.3,14,4.2,16
2015/12/3 9:25,2.2,14,2.3,15,3.1,16
2015/12/3 9:26,2.1,15,2.2,15,6.1,1
2015/12/3 9:27,2.4,15,2.4,15,9.9,16
2015/12/3 9:28,2.9,15,2.9,15,9.2,15
2015/12/3 9:29,2.9,16,3,16,6.2,1
2015/12/3 9:30,2.8,15,2.9,16,2.1,12
2015/12/3 9:31,2.8,15,2.9,16,3.8,7
2015/12/3 9:32,2.6,15,2.8,16,3.9,9
2015/12/3 9:33,2.7,14,2.7,16,3.7,8
2015/12/3 9:34,2.6,14,2.7,16,3.3,11
2015/12/3 9:35,2.7,13,2.7,16,3.9,9
2015/12/3 9:36,2.5,13,2.7,16,1.4,6
2015/12/3 9:37,2.1,12,2.5,16,3.8,11
2015/12/3 9:38,1.6,12,2.1,16,2.1,13
2015/12/3 9:39,1.4,12,1.5,16,2.4,2
2015/12/3 9:40,1.4,11,1.4,15,2.5,1
2015/12/3 9:41,1.4,12,1.4,15,3,1
2015/12/3 9:42,1.3,14,1.3,14,2.9,15
2015/12/3 9:43,1.2,15,1.3,14,4.2,9
2015/12/3 9:44,1.3,14,1.3,13,4.1,10
2015/12/3 9:45,1.4,13,1.4,13,4.2,11
2015/12/3 9:46,1.5,11,1.5,13,5.4,8
2015/12/3 9:47,1.6,10,1.6,12,5.1,9
2015/12/3 9:48,1.9,10,1.9,10,6.8,11
2015/12/3 9:49,2.1,11,2.1,11,4.5,13
2015/12/3 9:50,2.1,11,2.1,11,3.1,10
2015/12/3 9:51,2.1,11,2.1,11,2.9,10
2015/12/3 9:52,2.6,11,2.6,11,9.9,10
2015/12/3 9:53,2.6,11,2.7,11,5.8,10
2015/12/3 9:54,2.5,11,2.6,11,2.6,8
2015/12/3 9:55,2.4,11,2.4,11,3.8,9
2015/12/3 9:56,2.3,11,2.4,11,3.1,6
2015/12/3 9:57,2.1,12,2.2,11,1.6,8
2015/12/3 9:58,1.9,11,2.1,11,4.3,9
2015/12/3 9:59,1.8,11,1.9,11,3.2,14
2015/12/3 10:00,1.9,10,1.9,11,6.7,10
2015/12/3 10:01,2,10,2,11,8.7,8
2015/12/3 10:02,1.9,10,2,11,7.5,8
2015/12/3 10:03,1.8,11,1.9,11,2.1,14
2015/12/3 10:04,1.8,10,1.8,11,2.4,8
2015/12/3 10:05,1.8,11,1.8,11,5.6,12
2015/12/3 10:06,2,11,2,11,6.2,13
2015/12/3 10:07,2.4,11,2.4,11,7.9,10
2015/12/3 10:08,2.9,11,2.9,11,9.2,10
2015/12/3 10:09,3.1,11,3.1,11,8.6,10
2015/12/3 10:10,3.3,11,3.3,11,7.8,10
2015/12/3 10:11,3.5,11,3.6,11,8.7,10
2015/12/3 10:12,3.5,11,3.5,11,7.1,11
2015/12/3 10:13,3.6,11,3.6,11,5.2,11
2015/12/3 10:14,3.6,11,3.6,11,4.7,12
2015/12/3 10:15,3.6,10,3.8,10,4.4,9
2015/12/3 10:16,3.5,10,3.6,10,3,4
2015/12/3 10:17,3.3,10,3.5,10,3.5,9
2015/12/3 10:18,2.8,10,3.2,10,4.3,6
2015/12/3 10:19,2.6,10,2.8,10,3.7,9
2015/12/3 10:20,2.3,10,2.5,10,4.8,9
2015/12/3 10:21,2.4,9,2.4,10,8.5,9
2015/12/3 10:22,2.4,9,2.4,10,7.7,9
2015/12/3 10:23,2.5,9,2.5,10,8.7,8
2015/12/3 10:24,3,9,3,10,10.2,11
2015/12/3 10:25,3.5,9,3.5,10,11.4,10
2015/12/3 10:26,3.7,10,3.7,9,10.2,12
2015/12/3 10:27,3.7,10,3.7,9,5.2,12
2015/12/3 10:28,3.8,11,3.8,10,5.4,15
2015/12/3 10:29,4,11,4,11,7.2,9
2015/12/3 10:30,4.2,11,4.2,11,5.4,10
2015/12/3 10:31,4,11,4.2,11,5.7,9
2015/12/3 10:32,3.9,11,4,11,7.4,10
2015/12/3 10:33,3.9,11,4,11,7.8,10
2015/12/3 10:34,3.6,11,3.9,11,7.7,11
2015/12/3 10:35,3.2,11,3.6,11,5.1,10
2015/12/3 10:36,3.2,11,3.2,11,5.8,10
2015/12/3 10:37,3.2,11,3.3,11,5.6,9
2015/12/3 10:38,3.2,11,3.2,11,3.8,9
2015/12/3 10:39,2.8,11,3.2,11,2.4,8
2015/12/3 10:40,2.8,11,2.8,11,7.1,12
2015/12/3 10:41,2.8,11,2.8,11,4.2,10
2015/12/3 10:42,2.8,11,2.8,11,5.6,10
2015/12/3 10:43,2.6,11,2.8,11,3.3,11
2015/12/3 10:44,2.4,11,2.6,11,4.5,11
2015/12/3 10:45,2.3,11,2.3,11,5.2,12
2015/12/3 10:46,2.2,11,2.3,11,5.7,12
2015/12/3 10:47,2.4,11,2.4,11,6.3,13
2015/12/3 10:48,2.5,12,2.5,11,4.8,12
2015/12/3 10:49,2.8,12,2.8,11,6.5,12
2015/12/3 10:50,2.6,12,2.8,11,5.7,9
2015/12/3 10:51,2.8,12,2.8,11,7,11
2015/12/3 10:52,2.7,12,2.8,11,4.9,13
2015/12/3 10:53,2.7,12,2.7,12,3.3,14
2015/12/3 10:54,2.7,12,2.7,12,4.1,10
2015/12/3 10:55,3,12,3,12,6.2,13
2015/12/3 10:56,3,12,3.1,12,6,12
2015/12/3 10:57,2.9,12,3,12,5.6,14
2015/12/3 10:58,2.9,12,3,12,4.9,10
2015/12/3 10:59,2.7,12,2.9,12,4.9,9
2015/12/3 11:00,2.8,12,2.8,12,4.5,12
2015/12/3 11:01,2.7,12,2.8,12,7.6,12
2015/12/3 11:02,2.8,12,2.8,12,6.4,11
2015/12/3 11:03,3,12,3,12,6.3,10
2015/12/3 11:04,3.2,12,3.2,12,6.2,11
2015/12/3 11:05,3.2,12,3.2,12,8.3,12
2015/12/3 11:06,3.2,12,3.2,12,6.7,13